Weather History for Richlands, VA

Change the Weather History Date:

Thursday, July 24, 2014

  Actual Average (KBLF) Record (KBLF)
Temperature  
Mean Temperature 72 °F 73 °F  
Max Temperature 80 °F 81 °F 91 °F (1987)
Min Temperature 64 °F 65 °F 54 °F (2008)
Degree Days  
Heating Degree Days 0 0  
Month to date heating degree days 0  
Since 1 June heating degree days 22  
Since 1 July heating degree days 0  
Cooling Degree Days 7 8  
Month to date cooling degree days 192  
Year to date cooling degree days 449  
Since 1 June cooling degree days 358  
Growing Degree Days 22 (Base 50)    
Moisture  
Dew Point 67 °F    
Average Humidity 90    
Maximum Humidity 95    
Minimum Humidity 64    
Precipitation  
Precipitation 0.48 in 0.13 in 1.50 in (2007)
Month to date precipitation 3.29  
Year to date precipitation 24.25  
Snow  
Snow 0.00 in - - ()
Month to date snowfall  
Since 1 June snowfall  
Since 1 July snowfall  
Snow Depth -    
Sea Level Pressure  
Sea Level Pressure 30.04 in    
Wind  
Wind Speed 4 mph (WNW)    
Max Wind Speed 10 mph    
Max Gust Speed 16 mph    
Visibility 5 miles    
Events Fog , Rain , Thunderstorm    
T = Trace of Precipitation, MM = Missing Value Source: NWS Daily Summary

Daily Weather History Graph

Daily Weather History Graph

Search for Another Location

Airport:

Trip Planner

Search our weather history database for the weather conditions in past years. The results will help you decide how hot, cold, wet, or windy it might be!

Date:

Astronomy

Jul. 24, 2014 Rise Set
Actual Time 6:25 AM EDT 8:41 PM EDT
Civil Twilight 5:56 AM EDT 9:10 PM EDT
Nautical Twilight 5:20 AM EDT 9:46 PM EDT
Astronomical Twilight 4:40 AM EDT 10:25 PM EDT
Moon 4:32 AM EDT (7/24) 6:55 PM EDT (7/24)
Length of Visible Light 15h 13m
Length of Day
14h 15m
Waning Crescent, 5% of the Moon is Illuminated
Jul 24
Waning Crescent
Jul 26
New
Aug 3
First Quarter
Aug 10
Full
Aug 17
Last Quarter

Hourly Weather History & Observations

Time (EDT) Temp. Heat Index Dew Point Humidity Pressure Visibility Wind Dir Wind Speed Gust Speed Precip Events Conditions
12:15 AM 72.0 °F - 69.8 °F 93% 30.08 in 5.0 mi West 4.6 mph - N/A   Overcast
12:35 AM 71.8 °F - 69.8 °F 93% 30.08 in 5.0 mi West 5.8 mph - N/A   Overcast
12:55 AM 71.6 °F - 69.4 °F 93% 30.08 in 7.0 mi West 5.8 mph - N/A   Overcast
1:15 AM 71.6 °F - 68.9 °F 91% 30.08 in 10.0 mi West 4.6 mph - N/A   Overcast
1:35 AM 71.2 °F - 68.0 °F 89% 30.07 in 10.0 mi West 3.5 mph - N/A   Overcast
2:03 AM 71.6 °F - 68.0 °F 88% 30.07 in 10.0 mi West 4.6 mph - N/A   Overcast
2:20 AM 71.1 °F - 68.0 °F 90% 30.06 in 10.0 mi West 4.6 mph - N/A   Overcast
2:35 AM 70.7 °F - 67.6 °F 90% 30.06 in 10.0 mi Calm Calm - N/A   Overcast
2:55 AM 70.3 °F - 67.3 °F 90% 30.04 in 10.0 mi Calm Calm - N/A   Overcast
3:15 AM 70.0 °F - 67.6 °F 92% 30.03 in 7.0 mi Calm Calm - N/A Rain Light Rain
3:35 AM 70.0 °F - 68.0 °F 93% 30.02 in 4.0 mi Calm Calm - N/A   Mostly Cloudy
3:55 AM 69.8 °F - 68.0 °F 94% 30.01 in 2.5 mi SSE 3.5 mph - N/A   Overcast
4:15 AM 69.8 °F - 68.0 °F 94% 30.01 in 4.0 mi NW 3.5 mph - N/A   Light Drizzle
4:35 AM 69.4 °F - 67.6 °F 94% 30.01 in 0.2 mi Calm Calm - N/A Fog Fog
4:55 AM 69.3 °F - 67.5 °F 94% 30.01 in 0.2 mi Calm Calm - N/A Fog Fog
5:15 AM 69.4 °F - 67.6 °F 94% 30.01 in 7.0 mi Calm Calm - N/A   Scattered Clouds
5:35 AM 69.3 °F - 67.5 °F 94% 30.02 in 0.2 mi Calm Calm - N/A Fog Fog
5:55 AM 69.3 °F - 67.5 °F 94% 30.03 in 0.2 mi Calm Calm - N/A Fog Fog
6:15 AM 69.1 °F - 67.5 °F 95% 30.03 in 0.8 mi Calm Calm - N/A   Overcast
6:35 AM 68.9 °F - 67.3 °F 95% 30.03 in 0.5 mi Calm Calm - N/A Fog Fog
6:55 AM 68.9 °F - 67.3 °F 95% 30.03 in 0.2 mi Calm Calm - N/A Fog Fog
7:15 AM 69.1 °F - 67.5 °F 95% 30.03 in 0.2 mi Calm Calm - N/A Fog Fog
7:35 AM 69.3 °F - 67.6 °F 95% 30.04 in 0.2 mi Calm Calm - N/A Fog Fog
7:55 AM 69.3 °F - 67.8 °F 95% 30.04 in 0.5 mi Calm Calm - N/A Fog Fog
8:15 AM 69.4 °F - 67.8 °F 95% 30.04 in 1.0 mi Calm Calm - N/A   Overcast
8:35 AM 69.6 °F - 68.0 °F 95% 30.05 in 0.2 mi Calm Calm - N/A Fog Fog
8:55 AM 69.4 °F - 67.8 °F 95% 30.05 in 0.5 mi Calm Calm - N/A Fog Fog
9:15 AM 70.2 °F - 68.0 °F 93% 30.05 in 5.0 mi SSW 3.5 mph - N/A   Overcast
9:35 AM 71.6 °F - 68.0 °F 88% 30.05 in 7.0 mi West 3.5 mph - N/A   Overcast
10:55 AM 75.0 °F - 68.0 °F 79% 30.04 in 10.0 mi West 5.8 mph - N/A   Overcast
11:15 AM 75.6 °F - 68.0 °F 77% 30.04 in 10.0 mi West 6.9 mph - N/A   Overcast
11:35 AM 75.7 °F - 67.6 °F 76% 30.03 in 10.0 mi West 8.1 mph - N/A   Mostly Cloudy
11:55 AM 77.4 °F - 68.0 °F 73% 30.03 in 10.0 mi WSW 6.9 mph - N/A   Scattered Clouds
12:15 PM 77.9 °F - 67.1 °F 69% 30.03 in 10.0 mi West 8.1 mph - N/A   Scattered Clouds
12:35 PM 79.0 °F - 68.4 °F 70% 30.03 in 10.0 mi WSW 10.4 mph - N/A   Mostly Cloudy
12:55 PM 79.0 °F - 67.1 °F 67% 30.03 in 10.0 mi West 10.4 mph - N/A   Mostly Cloudy
1:15 PM 80.1 °F 82.3 °F 66.7 °F 64% 30.01 in 10.0 mi WSW 9.2 mph - N/A   Scattered Clouds
1:35 PM 79.3 °F - 68.0 °F 68% 30.00 in 10.0 mi West 5.8 mph - N/A Thunderstorm Mostly Cloudy
1:55 PM 77.5 °F - 66.6 °F 69% 30.00 in 10.0 mi West 6.9 mph - N/A Thunderstorm Mostly Cloudy
2:15 PM 70.5 °F - 66.2 °F 86% 30.01 in 4.0 mi NNW 5.8 mph - 0.07 in Rain , Thunderstorm Heavy Thunderstorms and Rain
2:35 PM 70.0 °F - 67.5 °F 92% 30.01 in 7.0 mi WNW 4.6 mph - 0.12 in Rain Light Rain
2:55 PM 70.2 °F - 67.1 °F 90% 30.02 in 10.0 mi Calm Calm - 0.12 in Thunderstorm Scattered Clouds
3:15 PM 70.3 °F - 67.8 °F 92% 30.01 in 7.0 mi SW 4.6 mph - N/A   Mostly Cloudy
3:35 PM 70.3 °F - 67.3 °F 90% 30.03 in 10.0 mi SSW 4.6 mph - N/A   Overcast
3:55 PM 69.8 °F - 66.0 °F 88% 30.03 in 10.0 mi SSW 3.5 mph - N/A Rain , Thunderstorm Light Thunderstorms and Rain
4:15 PM 69.1 °F - 66.7 °F 92% 30.03 in 1.5 mi West 3.5 mph - 0.20 in Rain , Thunderstorm Heavy Thunderstorms and Rain
4:35 PM 69.4 °F - 66.6 °F 91% 30.03 in 10.0 mi Calm Calm - 0.20 in Rain , Thunderstorm Light Thunderstorms and Rain
4:55 PM 69.3 °F - 66.4 °F 91% 30.03 in 5.0 mi Calm Calm - 0.21 in Rain Rain
5:15 PM 70.2 °F - 67.3 °F 91% 30.04 in 2.0 mi NE 4.6 mph - 0.14 in Rain Heavy Rain
5:35 PM 69.1 °F - 67.1 °F 93% 30.03 in 4.0 mi NNW 5.8 mph - 0.15 in   Overcast
5:55 PM 68.9 °F - 66.7 °F 93% 30.04 in 1.0 mi NNW 10.4 mph - 0.15 in Rain Light Rain
6:15 PM 68.0 °F - 66.2 °F 94% 30.04 in 4.0 mi NNW 8.1 mph - N/A   Overcast
6:35 PM 67.3 °F - 65.3 °F 93% 30.05 in 4.0 mi NNW 8.1 mph - N/A   Overcast
6:55 PM 67.1 °F - 65.3 °F 94% 30.05 in 3.0 mi NNW 8.1 mph - N/A   Overcast
7:15 PM 66.6 °F - 64.8 °F 94% 30.05 in 0.5 mi NNW 9.2 mph - N/A Fog Fog
7:35 PM 65.8 °F - 64.0 °F 94% 30.05 in 0.2 mi NNW 10.4 mph 16.1 mph N/A Fog Fog
7:55 PM 65.3 °F - 63.5 °F 94% 30.05 in 0.2 mi NNW 9.2 mph - N/A Fog Fog
8:15 PM 65.1 °F - 63.5 °F 94% 30.05 in 0.2 mi NNW 5.8 mph - N/A Fog Fog
8:35 PM 64.6 °F - 63.0 °F 94% 30.06 in 0.2 mi NW 8.1 mph - N/A Fog Fog
8:55 PM 64.4 °F - 62.6 °F 94% 30.07 in 3.0 mi NNW 5.8 mph - N/A   Overcast
9:15 PM 64.2 °F - 62.6 °F 94% 30.07 in 1.8 mi NW 4.6 mph - N/A   Overcast
9:35 PM 64.2 °F - 62.6 °F 94% 30.07 in 1.8 mi Calm Calm - N/A   Overcast
9:55 PM 64.2 °F - 62.6 °F 94% 30.08 in 3.0 mi Calm Calm - N/A   Overcast
10:15 PM 64.4 °F - 62.6 °F 94% 30.09 in 7.0 mi Calm Calm - N/A   Overcast
10:35 PM 64.4 °F - 62.6 °F 94% 30.10 in 7.0 mi Calm Calm - N/A   Overcast
10:55 PM 64.4 °F - 62.6 °F 94% 30.10 in 2.5 mi NW 3.5 mph - N/A   Overcast
11:15 PM 64.2 °F - 62.6 °F 94% 30.10 in 2.0 mi Calm Calm - N/A   Overcast
11:35 PM 64.0 °F - 62.4 °F 94% 30.10 in 0.2 mi NW 3.5 mph - N/A Fog Fog
11:55 PM 64.0 °F - 62.6 °F 95% 30.11 in 0.5 mi NNW 3.5 mph - N/A Fog Fog